Regional Weather Roundup
Issued by NWS Sterling, VA

Home | Current Version | Previous Version | Text Only | Print | Product List | Glossary Off
Versions: 1 2 3 4 5 6 7 8 9 10 11 12 13 14 15 16 17 18 19 20 21 22 23 24 25 26 27

000
ASUS41 KLWX 190511
RWRLWX

REGIONAL WEATHER ROUNDUP
NATIONAL WEATHER SERVICE BALTIMORE MD/WASHINGTON DC
100 AM EDT THU APR 19 2018

Note: "FAIR" indicates few or no clouds below 12,000 feet
with no significant weather and/or obstructions to visibility.
 TC=TEMPERATURE CELSIUS

 * =Non NWS site. Station does not report precipitation (e.g. rain,
    snow, etc.), thunder, or fog.

DCZ001-MDZ009-015-VAZ040>042-051-053>054-190600-
WASHINGTON METRO

CITY           SKY/WX    TMP DP  RH WIND       PRES   REMARKS
WASHINGTON NAT FAIR      52  41  66 E3        29.67F
DULLES         FAIR      48  40  73 E3        29.66F
ANDREWS AFB    FAIR      47  41  77 E3        29.65F
FT BELVOIR     FAIR      47  41  79 CALM      29.66F
QUANTICO       FAIR      51  47  86 S7        29.66F
COLLEGE PARK*  FAIR      47  38  71 CALM      29.67F
LEESBURG*      FAIR      50  41  71 E3        29.67F
MANASSAS*      FAIR      49  40  71 N6        29.66F
GAITHERSBURG*  FAIR      48  37  65 E5        29.67F

$$

MDZ006>007-011-014-190600-
BALTIMORE METRO

CITY           SKY/WX    TMP DP  RH WIND       PRES   REMARKS
BWI AIRPORT    FAIR      49  41  74 NE3       29.67F
MD SCIENCE CTR   N/A     53  41  63 MISG      29.68F
MARTIN STATE   FAIR      46  45  93 CALM      29.69F
ANNAPOLIS      MOCLDY    54  46  74 E6        29.67F
FORT MEADE*    FAIR      43  37  81 CALM      29.69F

$$

MDZ012-015-019>023-190600-
MARYLAND EASTERN SHORE

CITY           SKY/WX    TMP DP  RH WIND       PRES   REMARKS
OCEAN CITY     FAIR      49  44  83 VRB3      29.70F
SALISBURY      FAIR      45  43  93 E5        29.67F
BAY BRIDGE AP* MOCLDY    50  41  71 E5        29.68F
CAMBRIDGE*     CLEAR     46  41  81 E3        29.67F
EASTON*        FAIR      48  41  76 SE5       29.71F

$$

MDZ017>025-190600-
SOUTHERN MARYLAND

CITY           SKY/WX    TMP DP  RH WIND       PRES   REMARKS
PATUXENT RIVER FAIR      52  46  80 SE12      29.65F
ST INIGOES     FAIR      51  46  83 SE9       29.64F
LEONARDTOWN*   FAIR      48  43  81 E7        29.66F

$$

MDZ003>005-190600-
NORTH CENTRAL MARYLAND

CITY           SKY/WX    TMP DP  RH WIND       PRES   REMARKS
FREDERICK*     FAIR      45  36  70 CALM      29.70F
HAGERSTOWN APT CLOUDY    53  37  54 S5        29.64F
WESTMINSTER*   MOCLDY    48  39  71 E3          N/A

$$

MDZ501>502-190600-
WESTERN MARYLAND

CITY           SKY/WX    TMP DP  RH WIND       PRES   REMARKS
OAKLAND*       MOCLDY    41  39  93 N7        29.66R
CUMBERLAND*    CLOUDY    52  34  50 CALM      29.67S

$$

VAZ025>031-190600-
SHENANDOAH VALLEY

CITY           SKY/WX    TMP DP  RH WIND       PRES   REMARKS
WINCHESTER*    CLOUDY    46  37  71 E3        29.65F
FRONT ROYAL*   FAIR      50  39  66 CALM      29.62F
LURAY*         FAIR      46  41  81 NE3       29.61F
NEW MARKET*    FAIR      47  39  74 CALM      29.62F
STAUNTON*      FAIR      46  40  78 CALM      29.65S
WAYNESBORO*    FAIR      53  42  67 NW6       29.63F

$$

WVZ021-048>050-054>055-190600-
EASTERN WEST VIRGINIA PANHANDLE

CITY           SKY/WX    TMP DP  RH WIND       PRES   REMARKS
MARTINSBURG    CLOUDY    52  38  58 CALM      29.63F
PETERSBURG*    FAIR      45  43  93 CALM      29.63F

$$

VAZ036>039-050-190600-
CENTRAL FOOTHILLS

CITY           SKY/WX    TMP DP  RH WIND       PRES   REMARKS
CHARLOTTESVILL FAIR      54  40  59 CALM      29.64F
CULPEPER*      FAIR      46  40  77 CALM      29.66F
ORANGE*        FAIR      46  41  81 CALM      29.65F
GORDONSVILLE*  FAIR      48  43  82 CALM      29.64F
WARRENTON*     FAIR      46  39  77 CALM      29.64F

$$

VAZ055>057-190600-
NORTH AND CENTRAL PIEDMONT

CITY           SKY/WX    TMP DP  RH WIND       PRES   REMARKS
FREDERICKSBRG* FAIR      49  46  87 E5        29.65F
STAFFORD*      FAIR      49  49 100 E6        29.68F

$$

NCZ024-NYZ072-PAZ021-071-VAZ022-071-190600-
OTHER REGIONAL OBSERVATIONS

CITY           SKY/WX    TMP DP  RH WIND       PRES   REMARKS
NEW YORK CITY  CLOUDY    49  30  48 NE6       29.78S
PHILADELPHIA   CLOUDY    49  37  63 E5        29.73F
PITTSBURGH     LGT RAIN  44  41  89 N6        29.72R
ROANOKE        FAIR      71  52  50 VRB7      29.67F
RICHMOND       FAIR      49  49 100 SE5       29.62F
RALEIGH        FAIR      68  44  42 SW15      29.72S

$$

ANZ530>537-190600-
MARINE OBSERVATIONS

STATION/POSITION TIME  TEMP    WIND        PRES
                       AIR SEA DIR/SP/G
                 (UTC) (F)     (DEG/KT/KT) (MB)
THOMAS PT LIGHT  0500   51 51  130/  5/  5 1005.6F
BALT KEY BRIDGE  0448   51      70/  5/  5 1004.9F
COVE POINT       0448   51     160/ 12/ 14 1004.8F
LEWISETTA        0448   50 55  140/  6/  7 1004.0F
SOLOMONS ISLAND  0448   51 52  120/ 13/ 15 1003.8F
PINEY POINT      0448          150/ 19/ 21   N/A

$$





USA.gov is the U.S. government's official web portal to all federal, state and local government web resources and services.